TimeEEST,TemperatureF,Dew PointF,Humidity,Sea Level PressureIn,VisibilityMPH,Wind Direction,Wind SpeedMPH,Gust SpeedMPH,PrecipitationIn,Events,Conditions,WindDirDegrees,DateUTC
12:20 AM,42.8,39.2,87,29.98,-9999.0,Variable,1.2,-,N/A,,Clear,0,2012-10-26 21:20:00
12:50 AM,44.6,41.0,87,29.98,-9999.0,Variable,1.2,-,N/A,,Clear,0,2012-10-26 21:50:00
1:20 AM,41.0,39.2,93,30.01,-9999.0,Variable,1.2,-,N/A,,Clear,0,2012-10-26 22:20:00
1:50 AM,42.8,39.2,87,30.01,-9999.0,NE,1.2,-,N/A,,Clear,50,2012-10-26 22:50:00
2:20 AM,42.8,41.0,93,30.01,-9999.0,East,2.3,-,N/A,,Clear,80,2012-10-26 23:20:00
2:50 AM,39.2,37.4,93,30.01,-9999.0,NNW,3.5,-,N/A,,Clear,340,2012-10-26 23:50:00
3:00 AM,39,37,91,29.99,12,NNW,3.5,,,,,340,2012-10-27 00:00:00
3:20 AM,39.2,37.4,93,30.01,-9999.0,Variable,1.2,-,N/A,,Clear,0,2012-10-27 00:20:00
3:50 AM,39.2,37.4,93,30.01,-9999.0,SSW,1.2,-,N/A,,Clear,200,2012-10-27 00:50:00
4:20 AM,37.4,35.6,93,30.01,-9999.0,Variable,1.2,-,N/A,,Clear,0,2012-10-27 01:20:00
4:50 AM,41.0,37.4,87,30.01,-9999.0,East,2.3,-,N/A,,Clear,80,2012-10-27 01:50:00
5:20 AM,39.2,39.2,100,30.01,-9999.0,ENE,4.6,-,N/A,,Clear,70,2012-10-27 02:20:00
5:50 AM,37.4,35.6,93,30.01,-9999.0,Variable,1.2,-,N/A,,Clear,0,2012-10-27 02:50:00
6:20 AM,37.4,35.6,93,30.01,-9999.0,NNE,3.5,-,N/A,,Clear,30,2012-10-27 03:20:00
6:50 AM,37.4,37.4,100,30.01,-9999.0,North,1.2,-,N/A,,Clear,10,2012-10-27 03:50:00
7:20 AM,37.4,35.6,93,30.04,-9999.0,Variable,1.2,-,N/A,,Clear,0,2012-10-27 04:20:00
7:50 AM,39.2,37.4,93,30.04,-9999.0,Variable,1.2,-,N/A,,Clear,0,2012-10-27 04:50:00
8:20 AM,41.0,39.2,93,30.04,-9999.0,WSW,1.2,-,N/A,,Clear,240,2012-10-27 05:20:00
8:50 AM,42.8,41.0,93,30.04,-9999.0,Variable,1.2,-,N/A,,Clear,0,2012-10-27 05:50:00
9:20 AM,46.4,41.0,81,30.04,-9999.0,Variable,2.3,-,N/A,,Clear,0,2012-10-27 06:20:00
9:50 AM,50.0,42.8,76,30.04,-9999.0,Variable,1.2,-,N/A,,Clear,0,2012-10-27 06:50:00
10:20 AM,51.8,42.8,71,30.04,-9999.0,Variable,2.3,-,N/A,,Clear,0,2012-10-27 07:20:00
10:50 AM,57.2,44.6,63,30.04,-9999.0,Variable,1.2,-,N/A,,Clear,0,2012-10-27 07:50:00
11:20 AM,57.2,44.6,63,30.04,-9999.0,Variable,2.3,-,N/A,,Clear,0,2012-10-27 08:20:00
11:50 AM,62.6,44.6,52,30.04,6.2,Variable,2.3,-,N/A,,Partly Cloudy,0,2012-10-27 08:50:00
12:20 PM,64.4,44.6,49,30.01,6.2,South,6.9,-,N/A,,Partly Cloudy,180,2012-10-27 09:20:00
12:50 PM,64.4,44.6,49,30.01,6.2,SSW,10.4,-,N/A,,Partly Cloudy,210,2012-10-27 09:50:00
1:20 PM,66.2,44.6,46,30.01,6.2,SW,10.4,-,N/A,,Partly Cloudy,230,2012-10-27 10:20:00
1:50 PM,66.2,42.8,43,30.01,6.2,SW,11.5,-,N/A,,Scattered Clouds,230,2012-10-27 10:50:00
2:20 PM,66.2,42.8,43,29.98,6.2,SW,8.1,-,N/A,,Scattered Clouds,230,2012-10-27 11:20:00
2:50 PM,66.2,44.6,46,29.98,6.2,SSW,10.4,-,N/A,,Scattered Clouds,210,2012-10-27 11:50:00
3:00 PM,66,43,32,29.95,12,SSW,10.4,,,,Partly Cloudy,210,2012-10-27 12:00:00
3:20 PM,68.0,42.8,40,29.98,6.2,South,6.9,-,N/A,,Scattered Clouds,190,2012-10-27 12:20:00
3:50 PM,68.0,44.6,43,29.98,6.2,SW,10.4,-,N/A,,Partly Cloudy,220,2012-10-27 12:50:00
4:20 PM,66.2,42.8,43,29.98,6.2,WSW,10.4,-,N/A,,Partly Cloudy,240,2012-10-27 13:20:00
4:50 PM,66.2,42.8,43,29.98,6.2,SW,5.8,-,N/A,,Partly Cloudy,230,2012-10-27 13:50:00
5:20 PM,66.2,42.8,43,29.98,6.2,WSW,5.8,-,N/A,,Partly Cloudy,250,2012-10-27 14:20:00
5:50 PM,62.6,41.0,45,29.98,6.2,WSW,5.8,-,N/A,,Partly Cloudy,240,2012-10-27 14:50:00
6:20 PM,60.8,41.0,48,29.98,6.2,WSW,3.5,-,N/A,,Scattered Clouds,250,2012-10-27 15:20:00
6:50 PM,59.0,42.8,55,29.98,6.2,SW,3.5,-,N/A,,Scattered Clouds,230,2012-10-27 15:50:00
7:20 PM,57.2,41.0,55,30.01,6.2,WNW,3.5,-,N/A,,Scattered Clouds,290,2012-10-27 16:20:00
7:50 PM,55.4,41.0,58,30.01,6.2,Variable,2.3,-,N/A,,Scattered Clouds,0,2012-10-27 16:50:00
8:20 PM,53.6,41.0,62,30.01,6.2,Variable,1.2,-,N/A,,Partly Cloudy,0,2012-10-27 17:20:00
8:50 PM,51.8,39.2,62,30.01,6.2,Calm,Calm,-,N/A,,Partly Cloudy,0,2012-10-27 17:50:00
9:00 PM,52,41,56,30.02,12,Calm,Calm,,,,Scattered Clouds,,2012-10-27 18:00:00
9:20 PM,51.8,39.2,62,30.01,-9999.0,ESE,6.9,-,N/A,,Clear,110,2012-10-27 18:20:00
9:50 PM,48.2,39.2,71,30.01,-9999.0,NNE,4.6,-,N/A,,Clear,20,2012-10-27 18:50:00
10:20 PM,48.2,39.2,71,30.04,-9999.0,NNE,3.5,-,N/A,,Clear,30,2012-10-27 19:20:00
10:50 PM,46.4,39.2,76,30.04,-9999.0,NNE,3.5,-,N/A,,Clear,20,2012-10-27 19:50:00
11:20 PM,44.6,39.2,81,30.04,-9999.0,Variable,1.2,-,N/A,,Clear,0,2012-10-27 20:20:00
11:50 PM,44.6,37.4,76,30.04,-9999.0,North,3.5,-,N/A,,Clear,350,2012-10-27 20:50:00